Weather History for Comanche, TX

Change the Weather History Date:

Wednesday, May 15, 2013

  Actual Average (KSEP) Record (KSEP)
Temperature  
Mean Temperature 76 °F -  
Max Temperature 87 °F 82 °F 96 °F (1978)
Min Temperature 64 °F 60 °F 43 °F (1926)
Cooling Degree Days 10    
Growing Degree Days 26 (Base 50)    
Moisture  
Dew Point 63 °F    
Average Humidity 69    
Maximum Humidity 100    
Minimum Humidity 42    
Precipitation  
Precipitation 0.97 in - - ()
Sea Level Pressure  
Sea Level Pressure 29.91 in    
Wind  
Wind Speed 11 mph (South)    
Max Wind Speed 23 mph    
Max Gust Speed 32 mph    
Visibility 10 miles    
Events Rain , Thunderstorm    
Averages and records for this station are not official NWS values.
T = Trace of Precipitation, MM = Missing Value Source: NWS Daily Summary

Daily Weather History Graph

Daily Weather History Graph

Search for Another Location

Airport:

Trip Planner

Search our weather history database for the weather conditions in past years. The results will help you decide how hot, cold, wet, or windy it might be!

Date:

Astronomy

May. 15, 2013 Rise Set
Actual Time 6:37 AM CDT 8:24 PM CDT
Civil Twilight 6:10 AM CDT 8:51 PM CDT
Nautical Twilight 5:37 AM CDT 9:24 PM CDT
Astronomical Twilight 5:03 AM CDT 9:58 PM CDT
Moon 11:10 AM CDT (5/15) 12:14 AM CDT (5/15)
Length of Visible Light 14h 41m
Length of Day
13h 47m
Waxing Crescent, 27% of the Moon is Illuminated
May 15
Waxing Crescent
May 17
First Quarter
May 24
Full
May 31
Last Quarter
Jun 8
New

Hourly Weather History & Observations

Time (CDT) Temp. Heat Index Dew Point Humidity Pressure Visibility Wind Dir Wind Speed Gust Speed Precip Events Conditions
12:15 AM 74.1 °F - 60.8 °F 63% 30.05 in 10.0 mi South 10.4 mph 17.3 mph N/A   Clear
12:35 AM 73.9 °F - 61.7 °F 65% 30.05 in 10.0 mi South 10.4 mph 17.3 mph N/A   Clear
12:55 AM 73.9 °F - 62.6 °F 68% 30.05 in 10.0 mi South 9.2 mph 18.4 mph N/A   Scattered Clouds
1:15 AM 73.4 °F - 63.1 °F 70% 30.04 in 10.0 mi South 9.2 mph - N/A   Scattered Clouds
1:35 AM 73.4 °F - 63.7 °F 71% 30.04 in 10.0 mi South 10.4 mph - N/A   Scattered Clouds
1:55 AM 73.4 °F - 64.0 °F 72% 30.04 in 10.0 mi South 8.1 mph - N/A   Overcast
2:15 AM 73.4 °F - 64.4 °F 73% 30.03 in 10.0 mi SSW 5.8 mph - N/A   Overcast
2:35 AM 73.0 °F - 64.4 °F 74% 30.02 in 10.0 mi Calm Calm - N/A Thunderstorm Overcast
2:55 AM 72.7 °F - 63.9 °F 74% 30.02 in 10.0 mi West 6.9 mph - N/A Rain Light Rain
3:15 AM 71.2 °F - 60.6 °F 69% 29.99 in 10.0 mi ESE 3.5 mph - N/A Rain , Thunderstorm Light Thunderstorms and Rain
3:35 AM 68.2 °F - 62.8 °F 83% 30.02 in 10.0 mi West 5.8 mph - N/A   Overcast
3:55 AM 67.6 °F - 62.6 °F 84% 30.00 in 10.0 mi West 4.6 mph - N/A   Scattered Clouds
4:15 AM 67.1 °F - 62.6 °F 85% 29.99 in 10.0 mi West 8.1 mph - N/A   Clear
4:35 AM 66.2 °F - 62.6 °F 88% 30.00 in 10.0 mi SSW 6.9 mph - N/A   Clear
4:55 AM 66.2 °F - 63.0 °F 89% 30.01 in 10.0 mi South 6.9 mph - N/A   Scattered Clouds
5:15 AM 65.7 °F - 62.8 °F 90% 30.00 in 10.0 mi South 5.8 mph - N/A   Scattered Clouds
5:35 AM 65.3 °F - 62.6 °F 91% 29.98 in 10.0 mi South 4.6 mph - N/A   Clear
5:55 AM 65.3 °F - 62.6 °F 91% 29.98 in 10.0 mi South 5.8 mph - N/A   Clear
6:15 AM 64.6 °F - 62.6 °F 93% 29.97 in 10.0 mi SE 5.8 mph - N/A   Clear
6:35 AM 64.6 °F - 62.8 °F 94% 29.97 in 10.0 mi SSE 4.6 mph - N/A   Clear
6:55 AM 64.8 °F - 63.1 °F 94% 29.98 in 10.0 mi SSE 9.2 mph - N/A   Clear
7:15 AM 65.1 °F - 63.0 °F 93% 29.99 in 10.0 mi SSE 8.1 mph - N/A   Clear
7:55 AM 67.1 °F - 63.0 °F 87% 30.00 in 10.0 mi South 9.2 mph - N/A   Mostly Cloudy
8:15 AM 68.0 °F - 62.6 °F 83% 30.00 in 10.0 mi South 11.5 mph 17.3 mph N/A   Mostly Cloudy
8:35 AM 67.5 °F - 62.8 °F 85% 30.00 in 10.0 mi South 18.4 mph 24.2 mph N/A   Overcast
8:55 AM 68.7 °F - 63.3 °F 83% 30.00 in 10.0 mi South 15.0 mph 24.2 mph N/A   Mostly Cloudy
9:15 AM 70.9 °F - 63.3 °F 77% 29.99 in 10.0 mi South 9.2 mph 19.6 mph N/A   Scattered Clouds
9:35 AM 71.4 °F - 63.0 °F 75% 30.00 in 10.0 mi SSW 10.4 mph 19.6 mph N/A   Scattered Clouds
9:55 AM 74.5 °F - 63.0 °F 67% 29.99 in 10.0 mi South 13.8 mph 19.6 mph N/A   Mostly Cloudy
10:15 AM 74.3 °F - 62.2 °F 66% 29.99 in 10.0 mi South 17.3 mph 26.5 mph N/A   Overcast
10:35 AM 73.8 °F - 63.7 °F 71% 29.98 in 10.0 mi South 23.0 mph 27.6 mph N/A   Overcast
10:55 AM 73.2 °F - 64.2 °F 73% 29.98 in 10.0 mi South 16.1 mph 27.6 mph N/A   Overcast
11:15 AM 73.9 °F - 64.9 °F 73% 29.97 in 10.0 mi South 16.1 mph 27.6 mph N/A   Overcast
11:35 AM 75.4 °F - 65.1 °F 70% 29.97 in 10.0 mi South 16.1 mph 25.3 mph N/A   Overcast
11:55 AM 77.4 °F - 65.3 °F 66% 29.96 in 10.0 mi South 21.9 mph 27.6 mph N/A   Overcast
12:15 PM 77.0 °F - 64.9 °F 66% 29.95 in 10.0 mi South 18.4 mph 24.2 mph N/A   Overcast
12:55 PM 80.8 °F 82.6 °F 65.3 °F 59% 29.93 in 10.0 mi South 13.8 mph 25.3 mph N/A   Mostly Cloudy
1:15 PM 80.2 °F 82.0 °F 64.9 °F 59% 29.92 in 10.0 mi South 16.1 mph 26.5 mph N/A   Mostly Cloudy
1:35 PM 81.9 °F 83.7 °F 65.1 °F 57% 29.91 in 10.0 mi South 16.1 mph 23.0 mph N/A   Overcast
1:55 PM 81.3 °F 82.9 °F 64.2 °F 56% 29.90 in 10.0 mi South 20.7 mph 26.5 mph N/A   Overcast
2:15 PM 81.7 °F 83.0 °F 63.5 °F 54% 29.90 in 10.0 mi South 12.7 mph 21.9 mph N/A   Overcast
2:35 PM 81.3 °F 82.7 °F 63.9 °F 55% 29.89 in 10.0 mi SSW 9.2 mph 20.7 mph N/A   Overcast
2:55 PM 83.5 °F 84.9 °F 64.0 °F 52% 29.88 in 10.0 mi South 11.5 mph - N/A   Mostly Cloudy
3:15 PM 83.8 °F 84.9 °F 63.5 °F 50% 29.87 in 10.0 mi South 12.7 mph 21.9 mph N/A   Mostly Cloudy
3:35 PM 84.6 °F 85.9 °F 63.9 °F 50% 29.85 in 10.0 mi South 11.5 mph 19.6 mph N/A   Mostly Cloudy
3:55 PM 86.2 °F 86.8 °F 62.6 °F 45% 29.83 in 10.0 mi South 20.7 mph 27.6 mph N/A   Scattered Clouds
4:35 PM 87.6 °F 87.9 °F 61.7 °F 42% 29.81 in 10.0 mi South 19.6 mph 28.8 mph N/A   Scattered Clouds
4:55 PM 86.9 °F 87.5 °F 62.6 °F 44% 29.80 in 10.0 mi South 23.0 mph 31.1 mph N/A   Scattered Clouds
5:15 PM 87.1 °F 87.8 °F 62.8 °F 44% 29.79 in 10.0 mi South 18.4 mph 29.9 mph N/A   Scattered Clouds
5:35 PM 87.1 °F 87.2 °F 61.7 °F 42% 29.78 in 10.0 mi SSW 20.7 mph 31.1 mph N/A   Clear
5:55 PM 87.4 °F 88.0 °F 62.2 °F 43% 29.77 in 10.0 mi South 20.7 mph 27.6 mph N/A   Clear
6:15 PM 86.5 °F 87.0 °F 62.2 °F 44% 29.76 in 10.0 mi South 20.7 mph 27.6 mph N/A   Clear
6:35 PM 83.3 °F 84.3 °F 62.6 °F 50% 29.75 in 10.0 mi South 18.4 mph 29.9 mph N/A   Clear
6:55 PM 80.8 °F 80.8 °F 56.3 °F 43% 29.74 in 10.0 mi South 21.9 mph 29.9 mph N/A   Clear
7:15 PM 78.8 °F - 60.8 °F 54% 29.74 in 10.0 mi South 12.7 mph 32.2 mph N/A   Clear
7:35 PM 77.7 °F - 56.5 °F 48% 29.74 in 10.0 mi South 16.1 mph 27.6 mph N/A   Clear
7:55 PM 76.8 °F - 58.8 °F 54% 29.74 in 10.0 mi South 16.1 mph - N/A   Clear
8:15 PM 77.4 °F - 61.3 °F 58% 29.76 in 10.0 mi South 11.5 mph 18.4 mph N/A   Clear
8:35 PM 77.4 °F - 63.5 °F 62% 29.75 in 10.0 mi South 15.0 mph - N/A   Clear
8:55 PM 78.1 °F - 64.9 °F 64% 29.75 in 10.0 mi South 18.4 mph 27.6 mph N/A Thunderstorm Clear
9:15 PM 78.8 °F - 65.3 °F 63% 29.74 in 10.0 mi South 17.3 mph 26.5 mph N/A Thunderstorm Scattered Clouds
9:35 PM 77.9 °F - 66.2 °F 67% 29.72 in 10.0 mi SSE 17.3 mph 28.8 mph N/A Thunderstorm Scattered Clouds
9:55 PM 73.0 °F - 65.8 °F 78% 29.83 in 7.0 mi North 9.2 mph 27.6 mph 0.07 in Rain , Thunderstorm Heavy Thunderstorms and Rain
10:15 PM 66.6 °F - 65.1 °F 95% 29.81 in 1.0 mi NE 21.9 mph 32.2 mph 0.85 in Rain , Thunderstorm Heavy Thunderstorms and Rain
10:35 PM 68.2 °F - 62.4 °F 82% 29.85 in 10.0 mi South 4.6 mph - 0.87 in Rain , Thunderstorm Thunderstorms and Rain
10:55 PM 67.3 °F - 63.7 °F 88% 29.77 in 10.0 mi ESE 10.4 mph - 0.90 in Rain , Thunderstorm Light Thunderstorms and Rain
11:15 PM 66.9 °F - 66.9 °F 100% 29.75 in 10.0 mi SSW 9.2 mph - N/A Thunderstorm Thunderstorm
11:35 PM 67.1 °F - 67.1 °F 100% 29.77 in 10.0 mi South 16.1 mph 24.2 mph N/A Thunderstorm Scattered Clouds
11:55 PM - - - N/A% 29.78 in 10.0 mi SSE 12.7 mph 19.6 mph N/A Thunderstorm Clear